Weather reports worldwide

Advertisment
Palermo/Punta Raisi, Italy (16405): temperature & dewpoint: 17.04.2018 01:00:00 - 23.04.2018 01:00:00 (CEST)Palermo/Punta Raisi, Italy (16405): wind speed: 17.04.2018 01:00:00 - 23.04.2018 01:00:00 (CEST)Palermo/Punta Raisi, Italy (16405): wind direction: 17.04.2018 01:00:00 - 23.04.2018 01:00:00 (CEST)Palermo/Punta Raisi, Italy (16405): reduced air pressure: 17.04.2018 01:00:00 - 23.04.2018 01:00:00 (CEST)Palermo/Punta Raisi, Italy (16405): visibility: 17.04.2018 01:00:00 - 23.04.2018 01:00:00 (CEST)Palermo/Punta Raisi, Italy (16405): precipitation: 17.04.2018 01:00:00 - 23.04.2018 01:00:00 (CEST)
Date & Time tt [°C] td [°C] ff [km/h] ff [kn] dd ppp [hPa] vv [km] rr [mm]
23.04.2018 01:00:00 16,0 13,0 5 3 SSW - 9 -
23.04.2018 00:00:00 16,0 14,0 11 6 SW - 9 -
22.04.2018 23:00:00 16,5 13,8 4 2 - 1020,1 10 0,0
22.04.2018 22:00:00 18,0 13,0 5 3 ENE - 10 -
22.04.2018 21:00:00 18,0 14,0 9 5 NE - 10 -
22.04.2018 20:00:00 18,0 14,4 9 5 NE 1018,8 10 -
22.04.2018 19:00:00 19,0 15,0 11 6 NE - 10 -
22.04.2018 18:00:00 19,0 15,0 5 3 NNE - 10 -
22.04.2018 17:00:00 19,5 14,6 11 6 WNW 1018,6 10 0,0
22.04.2018 16:00:00 19,0 16,0 5 3 NW - 10 -
22.04.2018 15:00:00 19,0 16,0 15 8 NNE - 10 -
22.04.2018 14:00:00 19,1 15,8 18 10 NNE 1019,1 10 -
22.04.2018 13:00:00 19,0 16,0 18 10 NE - 10 -
22.04.2018 12:00:00 18,0 16,0 15 8 NNE - 10 -
22.04.2018 11:00:00 17,6 15,4 9 5 NNE 1019,5 10 0,0
22.04.2018 10:00:00 18,0 15,0 15 8 NNE - 8 -
22.04.2018 09:00:00 17,0 14,0 8 4 NNE - 10 -
22.04.2018 08:00:00 16,4 14,0 2 1 N 1019,1 8 -
22.04.2018 07:00:00 - - - - - - - -
22.04.2018 06:00:00 - - - - - - - -
22.04.2018 05:00:00 13,8 12,5 8 4 S 1018,7 - 0,0
22.04.2018 04:00:00 - - - - - - - -
22.04.2018 03:00:00 - - - - - - - -
22.04.2018 02:00:00 15,4 13,7 9 5 ENE 1019,2 - -
22.04.2018 01:00:00 - - - - - - - -
22.04.2018 00:00:00 - - - - - - - -
21.04.2018 23:00:00 15,6 14,1 8 4 SSW 1019,5 6 0,0
21.04.2018 22:00:00 - - - - - - - -
21.04.2018 21:00:00 17,0 14,0 5 3 ESE - 10 -
21.04.2018 20:00:00 17,1 14,7 8 4 NE 1018,8 10 -
21.04.2018 19:00:00 18,0 15,0 13 7 NE - 10 -
21.04.2018 18:00:00 18,0 15,0 8 4 N - 10 -
21.04.2018 17:00:00 18,3 14,6 5 3 N 1019,4 10 0,0
21.04.2018 16:00:00 19,0 15,0 4 2 - - 8 -
21.04.2018 15:00:00 18,0 15,0 9 5 NW - 10 -
21.04.2018 14:00:00 18,7 15,5 9 5 WNW 1020,0 10 -
21.04.2018 13:00:00 18,0 16,0 8 4 NW - 10 -
21.04.2018 12:00:00 17,0 15,0 5 3 NNE - 10 -
21.04.2018 11:00:00 16,2 14,8 4 2 - 1020,4 10 0,0
21.04.2018 10:00:00 16,0 14,0 9 5 WSW - 10 -
21.04.2018 09:00:00 15,0 14,0 13 7 SW - 3,0 -
21.04.2018 08:00:00 14,7 14,0 9 5 SSW 1019,5 3,0 -
21.04.2018 07:00:00 14,0 13,0 4 2 - - 4,0 -
21.04.2018 06:00:00 15,0 14,0 13 7 WSW - 7 -
21.04.2018 05:00:00 14,2 13,1 13 7 SW 1018,8 10 0,0
21.04.2018 04:00:00 15,0 14,0 8 4 SSE - 10 -
21.04.2018 03:00:00 16,0 15,0 5 3 SSE - 10 -
21.04.2018 02:00:00 15,8 14,8 4 2 SSE 1019,8 10 -
21.04.2018 01:00:00 17,0 15,0 5 3 WNW - 10 -
21.04.2018 00:00:00 17,0 16,0 9 5 WSW - 10 -
20.04.2018 23:00:00 15,6 13,9 5 3 S 1020,0 10 0,0
20.04.2018 22:00:00 17,0 16,0 2 1 - - 10 -
20.04.2018 21:00:00 17,0 15,0 5 3 SW - 10 -
20.04.2018 20:00:00 17,1 15,8 4 2 SSW 1019,6 10 -
20.04.2018 19:00:00 18,0 16,0 8 4 SW - 10 -
20.04.2018 18:00:00 18,0 16,0 4 2 W - 10 -
20.04.2018 17:00:00 18,3 15,2 4 2 N 1019,8 10 0,0
20.04.2018 16:00:00 18,0 15,0 13 7 NNE - 10 -
20.04.2018 15:00:00 18,0 14,0 11 6 NNE - 10 -
20.04.2018 14:00:00 17,9 15,3 16 9 NNE 1020,6 10 -
20.04.2018 13:00:00 18,0 15,0 11 6 N - 10 -
20.04.2018 12:00:00 18,0 15,0 9 5 N - 10 -
20.04.2018 11:00:00 17,1 13,9 9 5 N 1021,4 10 0,0
20.04.2018 10:00:00 17,0 13,0 8 4 N - 10 -
20.04.2018 09:00:00 16,0 13,0 4 2 - - 10 -
20.04.2018 08:00:00 15,4 13,2 0 0 N 1020,7 10 -
20.04.2018 07:00:00 14,0 12,0 4 2 - - 10 -
20.04.2018 06:00:00 15,0 12,0 4 2 - - 10 -
20.04.2018 05:00:00 12,8 10,6 4 2 N 1020,5 20 0,0
20.04.2018 04:00:00 13,0 12,0 9 5 SSW - 10 -
20.04.2018 03:00:00 14,0 12,0 4 2 SSW - 10 -
20.04.2018 02:00:00 14,3 12,8 5 3 SSE 1021,7 20 -
20.04.2018 01:00:00 15,0 13,0 2 1 - - 10 -
20.04.2018 00:00:00 16,0 14,0 5 3 WSW - 10 -
19.04.2018 23:00:00 15,5 13,1 5 3 SW 1022,3 10 0,0
19.04.2018 22:00:00 16,0 14,0 5 3 S - 10 -
19.04.2018 21:00:00 16,0 14,0 4 2 N - 10 -
19.04.2018 20:00:00 16,5 14,2 4 2 WSW 1022,0 10 -
19.04.2018 19:00:00 17,0 14,0 9 5 NNE - 10 -
19.04.2018 18:00:00 18,0 14,0 18 10 ENE - 10 -
19.04.2018 17:00:00 17,7 12,9 24 13 NE 1021,7 10 0,0
19.04.2018 16:00:00 18,0 12,0 26 14 NE - 10 -
19.04.2018 15:00:00 19,0 14,0 26 14 NE - 10 -
19.04.2018 14:00:00 18,5 13,1 26 14 ENE 1022,5 10 -
19.04.2018 13:00:00 19,0 13,0 21 11 NE - 10 -
19.04.2018 12:00:00 19,0 12,0 22 12 ENE - 10 -
19.04.2018 11:00:00 17,8 13,0 18 10 ENE 1023,4 10 0,0
19.04.2018 10:00:00 16,0 14,0 18 10 NE - 10 -
19.04.2018 09:00:00 16,0 14,0 9 5 NE - 10 -
19.04.2018 08:00:00 14,9 13,2 4 2 E 1023,1 10 -
19.04.2018 07:00:00 13,0 12,0 2 1 - - 10 -
19.04.2018 06:00:00 14,0 12,0 5 3 SSW - 10 -
19.04.2018 05:00:00 13,4 11,8 5 3 SW 1022,9 10 0,0
19.04.2018 04:00:00 15,0 13,0 5 3 NE - 10 -
19.04.2018 03:00:00 - - - - - - - -
19.04.2018 02:00:00 14,9 12,4 15 8 E 1023,6 10 -
19.04.2018 01:00:00 16,0 13,0 8 4 E - 10 -
19.04.2018 00:00:00 16,0 13,0 15 8 E - 10 -
18.04.2018 23:00:00 15,7 13,8 18 10 ENE 1023,4 10 0,0
18.04.2018 22:00:00 16,0 13,0 16 9 ENE - 10 -
18.04.2018 21:00:00 16,0 13,0 11 6 NE - 10 -
18.04.2018 20:00:00 15,4 13,4 9 5 SW 1022,1 10 -
18.04.2018 19:00:00 16,0 14,0 11 6 WSW - 10 -
18.04.2018 18:00:00 16,0 12,0 11 6 SW - 10 -
18.04.2018 17:00:00 15,5 12,3 24 13 SW 1022,8 8 0,0
18.04.2018 16:00:00 17,0 12,0 13 7 - - 10 -
18.04.2018 15:00:00 18,0 14,0 29 16 NE - 10 -
18.04.2018 14:00:00 17,4 14,1 22 12 NE 1021,3 10 -
18.04.2018 13:00:00 18,0 14,0 16 9 NE - 10 -
18.04.2018 12:00:00 17,0 13,0 9 5 NNE - 10 -
18.04.2018 11:00:00 17,0 14,0 8 4 NNW 1022,1 10 0,0
18.04.2018 10:00:00 17,0 12,0 4 2 - - 10 -
18.04.2018 09:00:00 16,0 12,0 11 6 NE - 10 -
18.04.2018 08:00:00 15,8 11,9 9 5 ENE 1021,2 10 -
18.04.2018 07:00:00 15,0 12,0 2 1 - - 9 -
18.04.2018 06:00:00 15,0 13,0 4 2 - - 10 -
18.04.2018 05:00:00 15,2 12,7 4 2 - 1020,4 10 0,0
18.04.2018 04:00:00 - - - - - - - -
18.04.2018 03:00:00 14,0 13,0 4 2 - - 10 -
18.04.2018 02:00:00 14,1 12,7 4 2 - 1020,5 10 -
18.04.2018 01:00:00 - - - - - - - -
18.04.2018 00:00:00 - - - - - - - -
17.04.2018 23:00:00 15,9 14,6 4 2 NW 1020,8 - 0,0
17.04.2018 22:00:00 - - - - - - - -
17.04.2018 21:00:00 16,0 14,0 4 2 - - 10 -
17.04.2018 20:00:00 15,9 14,2 4 2 - 1019,8 10 -
17.04.2018 19:00:00 16,0 14,0 5 3 NNE - 10 -
17.04.2018 18:00:00 17,0 14,0 4 2 - - 10 -
17.04.2018 17:00:00 16,9 14,4 13 7 NNW 1019,4 10 0,0
17.04.2018 16:00:00 17,0 15,0 15 8 NNW - 10 -
17.04.2018 15:00:00 17,0 14,0 16 9 WNW - 10 -
17.04.2018 14:00:00 16,9 14,2 16 9 NW 1019,9 10 -
17.04.2018 13:00:00 17,0 15,0 15 8 WNW - 10 -
17.04.2018 12:00:00 17,0 13,0 9 5 NW - 10 -
17.04.2018 11:00:00 16,4 12,6 5 3 W 1020,3 10 0,0
17.04.2018 10:00:00 16,0 11,0 5 3 W - 10 -
17.04.2018 09:00:00 15,0 10,0 5 3 WSW - 10 -
17.04.2018 08:00:00 14,9 10,8 9 5 W 1018,9 10 -
17.04.2018 07:00:00 13,0 10,0 2 1 - - 10 -
17.04.2018 06:00:00 15,0 12,0 18 10 SW - 10 -
17.04.2018 05:00:00 14,3 11,1 16 9 SW 1017,4 10 0,0
17.04.2018 04:00:00 14,0 11,0 16 9 SSW - 10 -
17.04.2018 03:00:00 14,0 11,0 13 7 SW - 10 -
17.04.2018 02:00:00 14,4 9,8 11 6 S 1017,7 10 -
17.04.2018 01:00:00 15,0 10,0 18 10 SSW - 10 -

tt = temperature
td = dewpoint
ff = wind speed
dd = wind direction
ppp = reduced air pressure
vv = visibility
rr = precipitation

Next stations